N204ZM -KJZI

Flight info

Callsign N204ZM
Flight time N/A
Altitude VFR
Route
Aircraft PIAT/L-DOV/C

Departure

Time N/A
Airport -

Arrival

Time 2026-04-21 16:12
Airport Charleston Executive Airport (KJZI)
Time Latitude Longitude Altitude Speed Heading
2026-04-21 15:44 32.89759 -80.03048 48 ft 0 kts 144°
2026-04-21 15:45 32.89755 -80.03046 48 ft 2 kts 179°
2026-04-21 15:46 32.89745 -80.03082 48 ft 7 kts 251°
2026-04-21 15:46 32.89713 -80.03141 46 ft 11 kts 217°
2026-04-21 15:46 32.89655 -80.03172 44 ft 8 kts 187°
2026-04-21 15:46 32.89573 -80.03153 43 ft 14 kts 184°
2026-04-21 15:47 32.89470 -80.03163 42 ft 16 kts 186°
2026-04-21 15:47 32.89350 -80.03176 40 ft 17 kts 191°
2026-04-21 15:47 32.89331 -80.03178 39 ft 0 kts 182°
2026-04-21 15:48 32.89332 -80.03178 39 ft 0 kts 182°
2026-04-21 15:53 32.89333 -80.03178 39 ft 0 kts 180°
2026-04-21 15:54 32.89301 -80.03182 38 ft 9 kts 189°
2026-04-21 15:54 32.89242 -80.03222 37 ft 12 kts 251°
2026-04-21 15:54 32.89289 -80.03282 38 ft 10 kts 330°
2026-04-21 15:55 32.89337 -80.03342 39 ft 10 kts 320°
2026-04-21 15:55 32.89400 -80.03374 38 ft 10 kts 333°
2026-04-21 15:55 32.89455 -80.03413 39 ft 9 kts 330°
2026-04-21 15:55 32.89504 -80.03450 40 ft 7 kts 329°
2026-04-21 15:56 32.89542 -80.03478 41 ft 6 kts 334°
2026-04-21 15:56 32.89575 -80.03499 42 ft 5 kts 337°
2026-04-21 15:56 32.89607 -80.03503 42 ft 4 kts 38°
2026-04-21 15:56 32.89617 -80.03473 43 ft 4 kts 70°
2026-04-21 15:57 32.89620 -80.03439 43 ft 5 kts 105°
2026-04-21 15:57 32.89615 -80.03393 43 ft 6 kts 97°
2026-04-21 15:57 32.89614 -80.03388 43 ft 0 kts 99°
2026-04-21 15:58 32.89614 -80.03389 43 ft 0 kts 99°
2026-04-21 15:59 32.89610 -80.03390 43 ft 3 kts 302°
2026-04-21 15:59 32.89619 -80.03438 43 ft 10 kts 275°
2026-04-21 15:59 32.89627 -80.03532 42 ft 13 kts 295°
2026-04-21 15:59 32.89765 -80.03645 46 ft 56 kts 327°
2026-04-21 16:00 32.90227 -80.04045 208 ft 98 kts 332°
2026-04-21 16:00 32.90791 -80.04486 444 ft 93 kts 335°
2026-04-21 16:00 32.91343 -80.04846 700 ft 89 kts 339°
2026-04-21 16:00 32.91915 -80.05156 950 ft 90 kts 342°
2026-04-21 16:01 32.92512 -80.05180 1118 ft 89 kts 25°
2026-04-21 16:01 32.92884 -80.04633 1314 ft 92 kts 77°
2026-04-21 16:01 32.92679 -80.03889 1405 ft 103 kts 124°
2026-04-21 16:01 32.92103 -80.03396 1580 ft 103 kts 146°
2026-04-21 16:02 32.91407 -80.03260 1790 ft 107 kts 186°
2026-04-21 16:02 32.90680 -80.03516 1924 ft 109 kts 186°
2026-04-21 16:02 32.89928 -80.03549 2032 ft 110 kts 168°
2026-04-21 16:02 32.89176 -80.03459 2028 ft 106 kts 169°
2026-04-21 16:03 32.88428 -80.03356 2010 ft 112 kts 169°
2026-04-21 16:03 32.87677 -80.03260 1990 ft 106 kts 168°
2026-04-21 16:03 32.86953 -80.03187 1954 ft 103 kts 169°
2026-04-21 16:03 32.86225 -80.03134 1881 ft 105 kts 172°
2026-04-21 16:04 32.85526 -80.03106 1886 ft 101 kts 172°
2026-04-21 16:04 32.84801 -80.03093 1777 ft 104 kts 174°
2026-04-21 16:04 32.84099 -80.03065 1755 ft 100 kts 172°
2026-04-21 16:04 32.83403 -80.03042 1783 ft 103 kts 173°
2026-04-21 16:05 32.82658 -80.02965 1880 ft 110 kts 169°
2026-04-21 16:05 32.81904 -80.02889 2012 ft 107 kts 172°
2026-04-21 16:05 32.81134 -80.02833 2074 ft 114 kts 169°
2026-04-21 16:05 32.80320 -80.02753 2030 ft 121 kts 168°
2026-04-21 16:06 32.79462 -80.02683 2003 ft 122 kts 171°
2026-04-21 16:06 32.78602 -80.02597 1948 ft 120 kts 170°
2026-04-21 16:06 32.77827 -80.02511 1958 ft 104 kts 167°
2026-04-21 16:06 32.77127 -80.02340 1923 ft 101 kts 159°
2026-04-21 16:07 32.76452 -80.02169 1903 ft 102 kts 160°
2026-04-21 16:07 32.75744 -80.01985 1836 ft 106 kts 164°
2026-04-21 16:07 32.75036 -80.01745 1749 ft 102 kts 149°
2026-04-21 16:07 32.74501 -80.01267 1542 ft 92 kts 131°
2026-04-21 16:08 32.73566 -80.00311 1171 ft 89 kts 139°
2026-04-21 16:08 32.73082 -79.99881 1009 ft 82 kts 137°
2026-04-21 16:08 32.72652 -79.99509 931 ft 73 kts 140°
2026-04-21 16:09 32.72211 -79.99188 798 ft 78 kts 148°
2026-04-21 16:09 32.71680 -79.99158 780 ft 87 kts 188°
2026-04-21 16:09 32.71219 -79.99581 849 ft 80 kts 239°
2026-04-21 16:09 32.71095 -80.00173 805 ft 74 kts 263°
2026-04-21 16:10 32.71071 -80.00804 781 ft 80 kts 271°
2026-04-21 16:10 32.71060 -80.01469 793 ft 77 kts 267°
2026-04-21 16:10 32.71034 -80.02074 697 ft 74 kts 270°
2026-04-21 16:10 32.70936 -80.02656 581 ft 71 kts 230°
2026-04-21 16:11 32.70549 -80.02860 423 ft 54 kts 145°
2026-04-21 16:11 32.70422 -80.02530 273 ft 50 kts 79°
2026-04-21 16:11 32.70477 -80.02124 159 ft 52 kts 88°
2026-04-21 16:11 32.70486 -80.01680 93 ft 53 kts 90°
2026-04-21 16:12 32.70487 -80.01390 46 ft 52 kts 92°
2026-04-21 16:12 32.70491 -80.00878 14 ft 39 kts 88°
2026-04-21 16:12 32.70493 -80.00459 96 ft 69 kts 92°
2026-04-21 16:12 32.70497 -79.99896 223 ft 68 kts 90°
2026-04-21 16:13 32.70513 -79.99332 377 ft 67 kts 88°
2026-04-21 16:13 32.70564 -79.98799 489 ft 66 kts 76°
2026-04-21 16:13 32.70864 -79.98374 554 ft 73 kts 32°
2026-04-21 16:13 32.71385 -79.98363 697 ft 81 kts 342°
2026-04-21 16:14 32.71708 -79.98887 820 ft 86 kts 284°
2026-04-21 16:14 32.71630 -79.99604 905 ft 88 kts 258°
2026-04-21 16:14 32.71505 -80.00313 999 ft 83 kts 257°
2026-04-21 16:14 32.71353 -80.01000 981 ft 89 kts 258°
2026-04-21 16:15 32.71240 -80.01647 924 ft 73 kts 258°
2026-04-21 16:15 32.70955 -80.02118 749 ft 73 kts 197°
2026-04-21 16:15 32.70533 -80.02016 559 ft 53 kts 118°
2026-04-21 16:15 32.70490 -80.01584 142 ft 53 kts 99°
2026-04-21 16:16 32.70489 -80.01180 17 ft 45 kts 91°
2026-04-21 16:16 32.70490 -80.00871 13 ft 33 kts 89°
2026-04-21 16:16 32.70498 -80.00470 104 ft 61 kts 91°
2026-04-21 16:16 32.70509 -79.99905 309 ft 75 kts 91°
2026-04-21 16:17 32.70521 -79.99285 639 ft 74 kts 82°
2026-04-21 16:17 32.70802 -79.98801 899 ft 73 kts 33°
2026-04-21 16:17 32.71350 -79.98755 1050 ft 92 kts 349°
2026-04-21 16:17 32.71860 -79.99203 1138 ft 95 kts 310°
2026-04-21 16:18 32.72017 -79.99930 1153 ft 90 kts 265°
2026-04-21 16:18 32.71938 -80.00661 1143 ft 87 kts 264°
2026-04-21 16:18 32.71839 -80.01367 1076 ft 88 kts 262°
2026-04-21 16:18 32.71630 -80.01913 981 ft 71 kts 208°
2026-04-21 16:19 32.71135 -80.02065 778 ft 71 kts 173°
2026-04-21 16:19 32.70667 -80.01945 618 ft 59 kts 141°
2026-04-21 16:19 32.70499 -80.01531 239 ft 59 kts 96°
2026-04-21 16:19 32.70491 -80.01080 20 ft 45 kts 91°
2026-04-21 16:20 32.70492 -80.00804 12 ft 25 kts 89°